Regional Weather Roundup
Issued by NWS Goodland, KS

Home | Current Version | Previous Version | Text Only | Print | Product List | Glossary Off
Versions: 1 2 3 4 5 6 7 8 9 10 11 12 13 14 15 16 17 18 19 20 21 22 23 24 25 26 27 28 29 30 31 32 33 34 35 36 37 38 39 40 41 42 43 44 45 46 47 48 49 50

000
ASUS43 KGLD 020059
RWRGLD

GOODLAND FORECAST AREA HOURLY WEATHER ROUNDUP
NATIONAL WEATHER SERVICE GOODLAND KS
700 PM MDT SAT AUG 01 2015

...OFFICIAL OBSERVATIONS...

CITY           SKY/WX    TMP DP  RH WIND       PRES   REMARKS
GOODLAND KS    CLEAR     85  53  33 SE18G24   30.02F
HILL CITY KS   CLEAR     89  60  37 S10       29.95F
IMPERIAL NEB   PTSUNNY   88  50  27 S15       29.97F
MCCOOK NEB     CLEAR     88  56  33 S8        29.94F
AKRON CO       MOSUNNY   84  56  38 SE18      30.03R
BURLINGTON CO  MOSUNNY   83  56  39 SE16G23   30.05S
LIMON CO       CLOUDY    80  54  40 SE14      30.10R
$$

...UNOFFICIAL OBSERVATIONS...

CITY           SKY/WX    TMP DP  RH WIND       PRES   REMARKS
COLBY KS       CLEAR     88  57  35 SE16      30.01F
NORTON KS      CLEAR     88  52  29 S8        29.94
SHARON SPRINGS   N/A     84  63  48 S7G15       N/A
KIT CARSON CO    N/A     85  57  38 MISG        N/A
YUMA CO          N/A     83  55  38 S12         N/A
$$


USA.gov is the U.S. government's official web portal to all federal, state and local government web resources and services.